When you browse on this site, cookies collect data to enhance your experience and personalize the content and advertising you see.
Visit our Privacy Policy to learn more. By continuing to use the site, you agree to this use of cookies and data.
  • In Germany
  • List of Countries
  • For 7 days
  • Water Temperature
  • Satellite Maps
  • Weather Map
  • Weather Widgets
  • user-avatar
    Login

    Hourly Weather Chien

    Today, 18 January, Friday

    Time Temperature Precipitation Wind Pressure Humidity
    00:00 +25°C° 0 mm 1 mps 740 mmHg 97%
    01:00 +25°C° 0 mm 1 mps 740 mmHg 97%
    02:00 +25°C° 0 mm 1 mps 740 mmHg 97%
    03:00 +25°C° 0 mm 1 mps 740 mmHg 96%
    04:00 +25°C° 0 mm 1 mps 740 mmHg 96%
    05:00 +25°C° 0 mm 1 mps 740 mmHg 95%
    06:00 +26°C° 0 mm 1 mps 740 mmHg 90%
    07:00 +27°C° 0 mm 2 mps 741 mmHg 86%
    08:00 +28°C° 0 mm 2 mps 741 mmHg 81%
    09:00 +30°C° 0 mm 2 mps 741 mmHg 72%
    10:00 +32°C° 0 mm 1 mps 741 mmHg 62%
    11:00 +34°C° 0 mm 1 mps 741 mmHg 53%
    12:00 +34°C° 0.2 mm 1 mps 740 mmHg 51%
    13:00 +35°C° 0.2 mm 1 mps 740 mmHg 49%
    14:00 +35°C° 0.2 mm 1 mps 739 mmHg 47%
    15:00 +35°C° 0.1 mm 2 mps 739 mmHg 53%
    16:00 +32°C° 0.1 mm 2 mps 739 mmHg 59%
    17:00 +31°C° 0.1 mm 2 mps 739 mmHg 64%
    18:00 +30°C° 0 mm 2 mps 740 mmHg 71%
    19:00 +28°C° 0 mm 2 mps 740 mmHg 77%
    20:00 +27°C° 0 mm 2 mps 741 mmHg 83%
    21:00 +27°C° 0 mm 1 mps 741 mmHg 87%
    22:00 +26°C° 0 mm 1 mps 741 mmHg 91%
    23:00 +25°C° 0 mm 1 mps 741 mmHg 95%

    Tomorrow, 19 January, Saturday

    Time Temperature Precipitation Wind Pressure Humidity
    00:00 +25°C° 0 mm 1 mps 741 mmHg 96%
    01:00 +25°C° 0 mm 1 mps 740 mmHg 97%
    02:00 +25°C° 0 mm 1 mps 740 mmHg 97%
    03:00 +25°C° 0 mm 1 mps 740 mmHg 96%
    04:00 +25°C° 0 mm 1 mps 740 mmHg 95%
    05:00 +25°C° 0 mm 1 mps 740 mmHg 93%
    06:00 +27°C° 0 mm 1 mps 741 mmHg 87%
    07:00 +28°C° 0 mm 1 mps 741 mmHg 80%
    08:00 +29°C° 0 mm 1 mps 742 mmHg 73%
    09:00 +31°C° 0 mm 1 mps 742 mmHg 65%
    10:00 +33°C° 0 mm 1 mps 742 mmHg 57%
    11:00 +35°C° 0 mm 1 mps 742 mmHg 48%
    12:00 +35°C° 0.8 mm 1 mps 741 mmHg 50%
    13:00 +35°C° 0.8 mm 1 mps 740 mmHg 53%
    14:00 +33°C° 0.8 mm 0 mps 739 mmHg 55%
    15:00 +33°C° 0.9 mm 1 mps 739 mmHg 62%
    16:00 +31°C° 0.9 mm 1 mps 739 mmHg 69%
    17:00 +29°C° 0.9 mm 2 mps 739 mmHg 76%
    18:00 +28°C° 0.5 mm 1 mps 740 mmHg 80%
    19:00 +27°C° 0.5 mm 1 mps 740 mmHg 85%
    20:00 +26°C° 0.5 mm 1 mps 741 mmHg 90%
    21:00 +26°C° 0 mm 1 mps 741 mmHg 91%
    22:00 +26°C° 0 mm 1 mps 741 mmHg 92%
    23:00 +25°C° 0 mm 1 mps 741 mmHg 93%

    Day after tomorrow, 20 January, Sunday

    Time Temperature Precipitation Wind Pressure Humidity
    00:00 +25°C° 0 mm 1 mps 741 mmHg 94%
    01:00 +25°C° 0 mm 1 mps 741 mmHg 96%
    02:00 +24°C° 0 mm 1 mps 740 mmHg 98%
    03:00 +24°C° 0 mm 1 mps 740 mmHg 98%
    04:00 +24°C° 0 mm 1 mps 740 mmHg 99%
    05:00 +22°C° 0 mm 0 mps 741 mmHg 99%
    06:00 +24°C° 0.2 mm 0 mps 741 mmHg 92%
    07:00 +25°C° 0.2 mm 0 mps 742 mmHg 85%
    08:00 +29°C° 0.2 mm 1 mps 742 mmHg 78%
    09:00 +29°C° 0.2 mm 0 mps 742 mmHg 69%
    10:00 +31°C° 0.2 mm 0 mps 742 mmHg 59%
    11:00 +33°C° 0.2 mm 0 mps 742 mmHg 50%
    12:00 +34°C° 0.7 mm 0 mps 741 mmHg 49%
    13:00 +34°C° 0.7 mm 0 mps 740 mmHg 47%
    14:00 +36°C° 0.7 mm 1 mps 739 mmHg 46%
    15:00 +34°C° 0.2 mm 1 mps 739 mmHg 52%
    16:00 +33°C° 0.2 mm 1 mps 740 mmHg 58%
    17:00 +31°C° 0.2 mm 2 mps 740 mmHg 63%
    18:00 +30°C° 0 mm 2 mps 740 mmHg 70%
    19:00 +28°C° 0 mm 1 mps 741 mmHg 77%
    20:00 +27°C° 0 mm 1 mps 741 mmHg 84%
    21:00 +26°C° 0 mm 1 mps 741 mmHg 87%
    22:00 +26°C° 0 mm 1 mps 742 mmHg 90%
    23:00 +25°C° 0 mm 1 mps 742 mmHg 93%

    21 January, Monday

    Time Temperature Precipitation Wind Pressure Humidity
    00:00 +25°C° 0 mm 1 mps 741 mmHg 95%
    01:00 +25°C° 0 mm 1 mps 741 mmHg 96%
    02:00 +25°C° 0 mm 1 mps 740 mmHg 97%
    03:00 +25°C° 0 mm 1 mps 740 mmHg 97%
    04:00 +22°C° 0 mm 0 mps 741 mmHg 97%
    05:00 +22°C° 0 mm 0 mps 741 mmHg 97%
    06:00 +26°C° 0 mm 1 mps 741 mmHg 91%
    07:00 +27°C° 0 mm 1 mps 742 mmHg 84%
    08:00 +28°C° 0 mm 1 mps 742 mmHg 77%
    09:00 +30°C° 0.1 mm 1 mps 742 mmHg 71%
    10:00 +31°C° 0.1 mm 1 mps 742 mmHg 65%
    11:00 +32°C° 0.1 mm 1 mps 741 mmHg 59%
    12:00 +33°C° 0.4 mm 1 mps 741 mmHg 56%
    13:00 +34°C° 0.4 mm 1 mps 740 mmHg 54%
    14:00 +35°C° 0.4 mm 1 mps 739 mmHg 51%
    15:00 +33°C° 1.1 mm 1 mps 739 mmHg 61%
    16:00 +31°C° 1.1 mm 2 mps 739 mmHg 70%
    17:00 +29°C° 1.1 mm 2 mps 739 mmHg 79%
    18:00 +28°C° 0.1 mm 2 mps 740 mmHg 83%
    19:00 +27°C° 0.1 mm 1 mps 741 mmHg 87%
    20:00 +26°C° 0.1 mm 1 mps 741 mmHg 90%
    21:00 +25°C° 0 mm 1 mps 741 mmHg 92%
    22:00 +25°C° 0 mm 1 mps 741 mmHg 94%
    23:00 +25°C° 0 mm 1 mps 741 mmHg 95%

    22 January, Tuesday

    Time Temperature Precipitation Wind Pressure Humidity
    00:00 +25°C° 0 mm 1 mps 741 mmHg 96%
    01:00 +25°C° 0 mm 1 mps 740 mmHg 97%
    02:00 +24°C° 0 mm 1 mps 740 mmHg 98%
    03:00 +24°C° 0 mm 1 mps 740 mmHg 98%
    04:00 +24°C° 0 mm 1 mps 740 mmHg 98%
    05:00 +22°C° 0 mm 0 mps 740 mmHg 99%
    06:00 +25°C° 0 mm 1 mps 741 mmHg 92%
    07:00 +27°C° 0 mm 1 mps 741 mmHg 85%
    08:00 +28°C° 0 mm 1 mps 742 mmHg 79%
    09:00 +30°C° 0 mm 1 mps 742 mmHg 69%
    10:00 +32°C° 0 mm 2 mps 741 mmHg 60%
    11:00 +35°C° 0 mm 2 mps 741 mmHg 50%
    12:00 +35°C° 0.6 mm 2 mps 740 mmHg 53%
    13:00 +34°C° 0.6 mm 2 mps 739 mmHg 55%
    14:00 +34°C° 0.6 mm 2 mps 738 mmHg 58%
    15:00 +32°C° 0.2 mm 2 mps 738 mmHg 60%
    16:00 +32°C° 0.2 mm 2 mps 738 mmHg 62%
    17:00 +31°C° 0.2 mm 2 mps 738 mmHg 64%
    18:00 +30°C° 0.1 mm 2 mps 739 mmHg 70%
    19:00 +28°C° 0.1 mm 2 mps 739 mmHg 76%
    20:00 +27°C° 0.1 mm 2 mps 740 mmHg 82%
    21:00 +26°C° 0 mm 1 mps 740 mmHg 85%
    22:00 +26°C° 0 mm 1 mps 740 mmHg 88%
    23:00 +25°C° 0 mm 1 mps 740 mmHg 92%

    23 January, Wednesday

    Time Temperature Precipitation Wind Pressure Humidity
    00:00 +25°C° 0 mm 1 mps 740 mmHg 94%
    01:00 +25°C° 0 mm 1 mps 739 mmHg 96%
    02:00 +24°C° 0 mm 1 mps 739 mmHg 98%
    03:00 +25°C° 0 mm 1 mps 739 mmHg 98%
    04:00 +25°C° 0 mm 1 mps 740 mmHg 97%
    05:00 +25°C° 0 mm 1 mps 740 mmHg 97%
    06:00 +26°C° 0 mm 1 mps 740 mmHg 90%
    07:00 +27°C° 0 mm 1 mps 741 mmHg 83%
    08:00 +29°C° 0 mm 1 mps 741 mmHg 76%
    09:00 +31°C° 0 mm 1 mps 741 mmHg 67%
    10:00 +33°C° 0 mm 1 mps 741 mmHg 57%
    11:00 +35°C° 0 mm 1 mps 740 mmHg 48%
    12:00 +35°C° 1.1 mm 1 mps 740 mmHg 51%
    13:00 +35°C° 1.1 mm 2 mps 739 mmHg 54%
    14:00 +35°C° 1.1 mm 2 mps 738 mmHg 57%
    15:00 +34°C° 0.4 mm 2 mps 738 mmHg 61%
    16:00 +31°C° 0.4 mm 2 mps 738 mmHg 65%
    17:00 +30°C° 0.4 mm 2 mps 738 mmHg 69%
    18:00 +29°C° 0 mm 2 mps 739 mmHg 74%
    19:00 +28°C° 0 mm 2 mps 739 mmHg 78%
    20:00 +27°C° 0 mm 2 mps 740 mmHg 83%
    21:00 +26°C° 0 mm 2 mps 740 mmHg 86%
    22:00 +26°C° 0 mm 1 mps 740 mmHg 90%
    23:00 +25°C° 0 mm 1 mps 740 mmHg 93%
    Show more